www.pogodaiklimat.ru

Погода и климат >> Архив погоды >> Сенегал >> Матам


ПОГОДА в Матаме

  • Прогноз погоды в Матаме
  • Монитор погоды в Матаме

АРХИВ ПОГОДЫ в Матаме

Время (UTC), дата Ветер
(напр.,м/с)
 
Видим.   Явления Облачность Т
(С)
Тd
(С)
f
(%)
Тe
(С)
Тes
(С)
Комфортность P
(гПа)
Po
(гПа)
Тmin
(С)
Tmax
(С)
R
(мм)
R24
(мм)
S
(см)
00 9.07 З 2 10 км 9/0
[Ac As]
+31.5 +22.0 57 +40 +40 очень
душно
1014.5 1012.6
03 9.07 СЗ 2 10 км 6/0
[Ac As]
+31.0 +22.3 60 +40 +40 очень
душно
1012.7 1010.8
06 9.07 СЗ 1 10 км 6/0
[Ac trans]
+29.5 +21.7 63 +38 +38 очень
душно
1012.8 1010.9 +29.0
09 9.07 СЗ 2 10 км 6/0
[Ac trans]
+31.0 +20.6 54 +38 +43 очень
душно
1014.3 1012.4
12 9.07 СЗ 2 10 км ясно +35.5 +19.0 38 +40 +61 опасность
солнечного
удара
1013.9 1012.0
15 9.07 С 3 10 км 5/0
[Ci sp]
+39.5 +22.4 38 +48 +60 опасность
перегрева
1009.6 1007.7
18 9.07 СЗ 5 10 км 4/0
[Ac As Ci ing]
+39.5 +14.2 22 +40 +41 очень
душно
1008.3 1005.4 +40.2
21 9.07 СЗ 1 10 км 6/0
[Ac trans]
+36.6 +15.2 28 +38 +38 очень
душно
1009.7 1007.8
00 10.07 ЮЗ 3 10 км 8/0
[Ac trans]
+33.0 +23.0 56 +43 +43 опасность
перегрева
1010.4 1008.5
03 10.07 СЗ 5 10 км 4/0
[Ac trans]
+32.0 +16.2 39 +35 +35 очень
душно
1010.9 1008.0
06 10.07 СЗ 5 10 км 3/0
[Ci sp]
+29.0 +17.2 49 +33 +33 очень
душно
1009.7 1007.8 +28.5
09 10.07 СЗ 5 10 км 3/0
[Ci sp]
+30.0 +19.7 54 +36 +40 очень
душно
1011.3 1009.4
12 10.07 СЗ 2 10 км 3/0
[Ci sp]
+35.5 +18.0 36 +39 +59 опасность
солнечного
удара
1011.2 1009.6
15 10.07 СЗ 4 10 км 5/0
[Ac trans Ci sp]
+38.5 +17.8 30 +42 +50 опасность
перегрева
1009.7 1007.8
18 10.07 З 2 10 км 6/0
[Ac trans]
+38.0 +18.1 31 +41 +43 опасность
перегрева
1009.2 1007.3 +39.0
21 10.07 СЗ 2 10 км 4/0
[Ac cast]
+36.0 +17.1 33 +39 +39 очень
душно
1010.1 1008.2
00 11.07 З 2 10 км 5/0
[Ac As]
+34.3 +21.1 46 +42 +42 опасность
перегрева
1011.2 1009.3
03 11.07 СЗ 2 10 км 4/0
[Ac trans]
+31.7 +37.4 100 +65 +65 опасность
перегрева
1011.1 1009.2
06 11.07 СЗ 3 10 км 4/0
[Ac trans]
+29.6 +20.1 57 +36 +36 очень
душно
1011.5 1009.6 +28.8
09 11.07 СЗ 3 10 км 3/0
[Ci sp]
+31.0 +20.6 54 +38 +44 очень
душно
1012.8 1010.9
12 11.07 СЗ 4 10 км ясно +35.2 +20.1 41 +41 +55 опасность
перегрева
1012.4 1010.5
15 11.07 С 2 10 км 4/4 480 м
[Sc]
+38.0 +19.5 34 +43 +53 опасность
перегрева
1009.9 1008.0
18 11.07 СЗ 2 10 км 5/5 480 м
[Sc]
+38.1 +20.6 36 +44 +45 опасность
перегрева
1010.3 1008.4 +39.0
21 11.07 СЗ 2 10 км зарница 8/1 900 м
[Cb cap Ac trans]
+35.6 +20.1 40 +41 +41 опасность
перегрева
1011.9 1010.0
00 12.07 штиль 0 10 км гроза, ливневой дождь 8/0
[Ac As]
+30.0 +24.3 72 +42 +42 опасность
перегрева
1013.7 1011.8 0.9
03 12.07 С 2 10 км 6/0 900 м
[Ac trans]
+30.5 +20.0 53 +37 +37 очень
душно
1012.3 1010.4
06 12.07 СЗ 1 10 км 4/0
[Ac trans]
+29.5 +19.7 56 +36 +36 очень
душно
1011.7 1009.8 +28.8 0.9
09 12.07 С 2 10 км 4/0
[Ci sp]
+31.5 +18.7 47 +37 +43 очень
душно
1013.6 1011.7
12 12.07 ЮВ 2 10 км ясно +37.0 +19.1 35 +42 +62 опасность
перегрева
1014.3 1012.4
15 12.07 Ю 1 10 км 3/3 480 м
[Sc]
+41.0 +18.8 28 +45 +58 опасность
перегрева
1009.1 1007.2
18 12.07 ЮВ 1 10 км 3/3 480 м
[Sc]
+40.0 +18.9 30 +44 +46 опасность
перегрева
1007.4 1005.5 +41.6
21 12.07 В 1 10 км 3/0
[Ac trans]
+36.0 +21.5 43 +44 +44 опасность
перегрева
1009.7 1007.8
00 13.07 З 2 10 км 4/0
[Ac trans Ci sp]
+35.8 +20.2 40 +42 +42 опасность
перегрева
1010.9 1009.0
06 13.07 С 2 10 км 3/0
[Ac trans]
+32.0 +20.9 52 +39 +39 очень
душно
1010.0 1008.1 +31.8
09 13.07 СЗ 2 10 км ясно +32.5 +20.1 48 +39 +46 очень
душно
1012.3 1010.4
12 13.07 СЗ 1 10 км 3/0
[Ac trans]
+36.6 +18.3 34 +40 +61 опасность
солнечного
удара
1011.8 1009.9
15 13.07 С 3 10 км 3/0
[Ac trans]
+41.0 +16.8 25 +43 +55 опасность
перегрева
1009.4 1007.5
18 13.07 С 3 10 км 6/6
[Cb calv Ac cuf Ci ing]
+40.4 +16.6 25 +42 +43 опасность
перегрева
1008.5 1006.6 +41.5
21 13.07 СЗ 1 10 км 1/0
[Ac trans]
+37.5 +19.6 35 +42 +42 опасность
перегрева
1010.7 1008.8
00 14.07 З 3 10 км 1/0
[Ac trans]
+34.8 +22.1 48 +44 +44 опасность
перегрева
1010.6 1008.7
03 14.07 СЗ 3 10 км 8/0
[Ac As]
+34.0 +22.3 51 +43 +43 опасность
перегрева
1010.1 1008.2
06 14.07 СЗ 4 10 км 1/0
[Ac trans]
+32.2 +19.6 47 +38 +38 очень
душно
1011.1 1009.2 +31.6
09 14.07 СЗ 5 10 км ясно +31.5 +21.2 54 +39 +43 очень
душно
1012.5 1010.6
12 14.07 СЗ 4 10 км 3/0
[Ci sp]
+36.3 +21.3 42 +44 +57 опасность
перегрева
1011.9 1010.0
15 14.07 СЗ 4 10 км ясно +39.5 +19.6 32 +45 +55 опасность
перегрева
1009.9 1008.0
18 14.07 СЗ 3 10 км 3/3 480 м
[Sc]
+40.0 +18.3 28 +43 +44 опасность
перегрева
1008.8 1006.9 +40.5
21 14.07 СЗ 2 10 км 3/0
[Ac trans]
+37.5 +17.8 32 +41 +41 опасность
перегрева
1010.4 1008.5
00 15.07 С 6 5000 м пыль ясно +34.0 +17.1 37 +37 +37 очень
душно
1012.5 1010.7
03 15.07 СЗ 4 8000 м ясно +31.0 +17.9 46 +35 +35 очень
душно
1011.2 1009.3
06 15.07 СЗ 3 10 км 3/0
[Ac trans]
+29.5 +18.8 53 +35 +35 очень
душно
1010.5 1008.6 +28.9
09 15.07 СЗ 2 10 км 3/0
[Ci sp]
+31.0 +19.7 51 +37 +44 очень
душно
1011.5 1009.6
12 15.07 З 2 10 км ясно +35.5 +18.0 36 +39 +60 опасность
солнечного
удара
1012.2 1010.3
15 15.07 СЗ 2 10 км 4/0
[Ci sp]
+39.5 +17.6 28 +42 +57 опасность
перегрева
1008.3 1006.4
18 15.07 СЗ 3 10 км 8/0
[Ci sp]
+38.5 +17.2 29 +41 +43 опасность
перегрева
1007.0 1005.1 +40.5
21 15.07 СЗ 1 10 км 4/0
[Ci sp]
+36.2 +17.6 33 +39 +39 очень
душно
1008.7 1006.8

 

Местоположение метеостанции Матам (Сенегал): широта 15.65 долгота -13.25 высота над уровнем моря 17 м.

В архиве по умолчанию представлена погода в Матаме за последнюю неделю. Архивные данные за месяц целиком и за предыдущие месяцы, начиная с января 2011 года, Вы можете получить, выбрав интересующий диапазон дат из раскрывающегося списка и нажав кнопку "Ввод!".


*Определитесь, кто Вы:
робот инопланетянин человек

Внимание! Время в таблицах - всемирное. Для получения местного времени необходимо прибавить поправку, которая равна 0 ч.

Смотрите также архив погоды в соседних городах и на ближайших метеорологических станциях:

Погода в Каэди (Мавритания) (62 км)
Погода в Фатото (Гамбия) (198 км)
Погода в Лингере (Сенегал) (202 км)
Погода в Подоре (Сенегал) (214 км)
Погода в Тамбакунде (Сенегал) (214 км)
Погода в Киффе (Мавритания) (226 км)
Погода в Каесе (Мали) (238 км)
Погода в Бутилимите (Мавритания) (259 км)
Погода в Джорджтауне (Гамбия) (287 км)
Погода в Росо (Мавритания) (289 км)

Пояснения к столбцам:

Ветер - указаны скорость ветра в м/с - средняя за 10 мин, порывы в срок и между сроками (в фигурных скобках) и направление, откуда дует ветер: С - северный, СВ - северо-восточный, В - восточный, ЮВ - юго-восточный, Ю - южный, ЮЗ - юго-западный, З - западный, СЗ - северо-западный.
Видимость - горизонтальная дальность видимости в метрах или километрах. При видимости от 1 до 10 км при отсутствии осадков обычно наблюдается дымка, при ухудшении видимости до 1 км и менее - туман. В сухую погоду видимость может ухудшаться дымом, пылью или мглою.
Явления - указаны атмосферные явления, наблюдавшиеся в срок или в последний час перед сроком; фигурными скобками обозначены явления, наблюдавшиеся между сроками (за 1-3 часа до срока); квадратными скобками обозначены град или гололедные отложения с указанием их диаметра в мм.
Облачность - указаны через наклонную черту общая и нижняя облачность в баллах и высота нижней границы облаков в метрах; квадратными скобками обозначены формы облаков: Ci - перистые, Cs - перисто-слоистые, Cc - перисто-кучевые, Ac - высококучевые, As - высокослоистые, Sc - слоисто-кучевые, Ns - слоисто-дождевые, Cu - кучевые, Cb - кучево-дождевые. Подробнее классификацию облаков см. в Атласе облаков (PDF).
T - Температура воздуха - температура, измеренная на высоте 2 м над землей.
Td - Температура точки росы - температура, при понижении до которой содержащийся в воздухе водяной пар достигнет насыщения.
f - Относительная влажность воздуха - влажноcть воздуха, измеренная на высоте 2 м над землей.
Te - Эффективная температура - температура, которую ощущает одетый по сезону человек в тени. Характеристика душности погоды. При расчете учитывается влияние влажности воздуха и скорости ветра на теплоощущения человека.
Tes - Эффективная температура на солнце - температура, которую ощущает человек, с поправкой на солнечный нагрев. Характеристика знойности погоды. Зависит от высоты солнца над горизонтом, облачности и скорости ветра. Ночью, в пасмурную погоду, а также при ветре 12 м/с и более поправка равна нулю.
P - Атмосферное давление - приведенное к уровню моря атмосферное давление.
Po - Атмосферное давление - измеренное на уровне метеостанции атмосферное давление.
Tmin - Минимальная температура - минимум температуры воздуха на высоте 2 м над землей.
Tmax - Максимальная температура - максимум температуры воздуха на высоте 2 м над землей.
R - Количество осадков - Количество выпавших осадков за период времени, мм. При наведении курсора мыши на число - период времени, за который выпало указанное количество осадков.
R24 - Количество осадков - Количество выпавших осадков за 24 часа, мм.
S - Снежный покров - Высота снежного покрова, см. При наведении курсора мыши на число - состояние снежного покрова и степень покрытия местности в баллах.